This demonstration page uses our WeatherBlox Daily Observations layout. Learn more.

Left ArrowRight Arrow

Hourly Observations for January 23, 2015

Temp ( °F °C ) Dew Point ( °F °C ) Humidity (%) Winds ( mph kmh ) Pressure ( in mb ) Visibility ( mi km ) Precip ( " mm )
12:52 am 00:52 Clear 23 -5 19 -7.2 85 85 SE 9 15 30.32 1027 10 16 0.00 0.00
1:52 am 01:52 Clear 22 -5.6 19 -7.2 89 89 SE 9 15 30.31 1026 10 16 0.00 0.00
2:52 am 02:52 Clear 22 -5.6 18 -7.8 85 85 SE 7 11 30.28 1026 10 16 0.00 0.00
3:52 am 03:52 Clear 21 -6.1 18 -7.8 88 88 SE 8 13 30.25 1025 10 16 0.00 0.00
4:52 am 04:52 Clear 22 -5.6 18 -7.8 85 85 SSE 9 15 30.22 1024 10 16 0.00 0.00
5:52 am 05:52 Clear 21 -6.1 18 -7.8 88 88 SSE 10 17 30.20 1023 10 16 0.00 0.00
6:52 am 06:52 Clear 21 -6.1 18 -7.8 88 88 SSE 12 19 30.18 1022 10 16 0.00 0.00
7:52 am 07:52 Mostly Sunny 20 -6.7 18 -7.8 92 92 SSE 10 17 30.17 1022 10 16 0.00 0.00
8:52 am 08:52 Mostly Sunny 24 -4.4 20 -6.7 84 84 SSE 13 20 30.14 1021 10 16 0.00 0.00
9:52 am 09:52 Mostly Sunny 28 -2.2 22 -5.6 78 78 S 13 20 30.11 1020 10 16 0.00 0.00
10:52 am 10:52 Partly Cloudy 33 0.6 24 -4.4 70 70 S 9 15 30.11 1020 10 16 0.00 0.00
11:52 am 11:52 Mostly Cloudy 37 2.8 24 -4.4 59 59 SSW 10 17 30.08 1019 10 16 0.00 0.00
12:52 pm 12:52 Mostly Cloudy 41 5 24 -4.4 51 51 S 10 17 30.03 1017 10 16 0.00 0.00
1:52 pm 13:52 Cloudy 44 6.7 23 -5 43 43 VRB 6 9 30.00 1016 10 16 0.00 0.00
2:52 pm 14:52 Cloudy 45 7.2 22 -5.6 40 40 SW 9 15 30.00 1016 10 16 0.00 0.00
3:52 pm 15:52 Mostly Cloudy 44 6.7 23 -5 43 43 SW 5 7 29.99 1016 10 16 0.00 0.00
4:52 pm 16:52 Partly Cloudy 46 7.8 24 -4.4 42 42 WNW 10 17 30.00 1016 10 16 0.00 0.00
5:52 pm 17:52 Partly Cloudy 39 3.9 24 -4.4 55 55 W 5 7 30.01 1016 10 16 0.00 0.00
6:52 pm 18:52 Clear 36 2.2 24 -4.4 62 62 Calm 30.03 1017 10 16 0.00 0.00
7:52 pm 19:52 Clear 37 2.8 27 -2.8 67 67 WNW 12 19 30.02 1017 10 16 0.00 0.00
8:52 pm 20:52 Clear 36 2.2 29 -1.7 76 76 NNW 8 13 30.01 1016 10 16 0.00 0.00
9:52 pm 21:52 Clear 34 1.1 28 -2.2 79 79 N 7 11 30.01 1016 10 16 0.00 0.00
10:52 pm 22:52 Clear 30 -1.1 28 -2.2 92 92 NNW 6 9 30.01 1016 10 16 0.00 0.00
11:52 pm 23:52 Clear 32 0 29 -1.7 88 88 NW 10 17 30.00 1016 10 16 0.00 0.00

Powered by AerisWeather